Location: *
(35.1500°N, 76.6700°W)
Time: 17:04:02
(UTC+00:00)

Cosmos 1726 - Pass Details

Date: 13 October 2019
Orbit: 483 x 500 km, 82.5° (Epoch: 11 November)

Event Time Altitude Azimuth Distance (km) Brightness Sun altitude
Rises 23:00:44 0° 152° (SSE) 2,555 5.5 -6.2°
Reaches altitude 10° 23:03:19 10° 133° (SE) 1,675 4.4 -6.7°
Maximum altitude 23:05:51 18° 89° (E) 1,262 3.5 -7.2°
Drops below altitude 10° 23:08:23 10° 45° (NE) 1,677 4.3 -7.7°
Sets 23:10:58 0° 26° (NNE) 2,560 5.4 -8.2°
